Voltar ao catálogo

FENGYUN 1C DEB

LostPO
NORAD 30961·DEBRIS·🇨🇳 China

Lançado May 10, 1999 de Taiyuan Satellite Launch Center

Loading…

Próximas Passagens (próximas 24 horas)

TLE

ObsoletoSource: Space-Track

Época: Nov 12, 2024, 08:45 UTC

1 30961U 99025BBB 24317.36513668  .00006676  00000-0  13145-2 0  9990
2 30961  98.9329 355.5202 0127215  21.5701 339.0788 14.57857769591728

Acompanhe FENGYUN 1C DEB em tempo real com AllMySat

Download on the App Store